Location: Brno
(49.2000°N, 16.6330°E)
Time: 21:37:47
(UTC+02:00)

A-11 Canister half - Visible Passes

Search period start: 27 July 2021 00:00
Search period end: 06 August 2021 00:00
Orbit: 1513 x 1687 km, 47.2° (Epoch: 26 July)

Date Brightness Start Highest point End Pass type
(mag) Time Alt. Az. Time Alt. Az. Time Alt. Az.
27 Jul 9.4 01:20:49 10° WNW 01:30:14 45° SW 01:35:34 26° SSE visible
27 Jul 10.3 03:28:06 10° W 03:33:10 15° SW 03:33:35 15° SW visible
27 Jul 9.1 22:52:48 10° W 23:02:56 77° SSW 23:13:06 10° ESE visible
28 Jul 9.3 00:57:50 10° WNW 01:07:20 47° SW 01:12:04 30° SSE visible
28 Jul 10.3 03:04:47 10° W 03:10:07 16° WSW 03:10:07 16° WSW visible
28 Jul 9.1 22:29:52 10° W 22:39:59 78° S 22:50:10 10° ESE visible
29 Jul 9.3 00:34:52 10° WNW 00:44:27 49° SSW 00:49:01 31° SSE visible
29 Jul 10.3 02:41:30 10° W 02:47:06 18° WSW 02:47:06 18° WSW visible
29 Jul 9.1 22:06:55 10° W 22:17:01 79° S 22:27:13 10° ESE visible
30 Jul 9.3 00:11:55 10° WNW 00:21:33 51° SSW 00:26:15 31° SSE visible
30 Jul 10.2 02:18:18 10° W 02:24:21 19° SW 02:24:21 19° SW visible
30 Jul 9.2 21:43:59 10° W 21:54:04 79° S 22:04:16 10° ESE visible
30 Jul 9.3 23:48:57 10° WNW 23:58:38 52° SSW 00:03:38 30° SSE visible
31 Jul 10.2 01:55:08 10° W 02:01:46 21° SW 02:01:46 21° SW visible
31 Jul 9.2 21:21:03 10° W 21:31:06 80° S 21:41:19 10° ESE visible
31 Jul 9.3 23:26:00 10° WNW 23:35:44 54° SSW 23:41:10 29° SSE visible
01 Aug 10.1 01:32:00 10° W 01:39:06 22° SW 01:39:18 22° SW visible
01 Aug 9.2 20:58:06 10° W 21:08:08 80° S 21:18:21 10° E visible
01 Aug 9.3 23:03:02 10° WNW 23:12:49 56° SSW 23:18:48 26° SE visible
02 Aug 10.1 01:08:52 10° W 01:16:16 24° SW 01:16:57 23° SW visible
02 Aug 9.3 22:40:06 10° WNW 22:49:54 58° SSW 22:56:31 23° SE visible
03 Aug 10.0 00:45:48 10° W 00:53:26 25° SW 00:54:40 25° SW visible
03 Aug 9.3 22:17:09 10° WNW 22:26:59 60° SSW 22:34:18 20° SE visible
04 Aug 10.0 00:22:44 10° W 00:30:36 27° SW 00:32:27 25° SSW visible
04 Aug 9.3 21:54:12 10° WNW 22:04:03 62° SSW 22:12:09 17° SE visible
04 Aug 10.0 23:59:41 10° W 00:07:46 28° SW 00:10:18 25° SSW visible
05 Aug 9.3 21:31:17 10° W 21:41:08 64° SSW 21:50:03 14° SE visible
05 Aug 10.0 23:36:38 10° W 23:44:54 30° SW 23:48:13 25° SSW visible
